Date String (YYYY-MM-DD hh:mm:ss) UTC,Instrument flags,Ambient pressure (hPa),Sample flow (lpm),Bypass flow (lpm),Sample temperature (°C),Ambient temperature (°C),ASC tube jacket temperature (°C),LED temperature (°C),Box temperature (°C),Sample RH (%),Span deviation,Mass concentration (μg/m³),Mass concentration (μg/m³),Mass concentration (μg/m³)
DateTimeUTC,F1_M11,P_M11,Q1_M11,Q2_M11,T1_M11,T2_M11,T3_M11,T4_M11,T5_M11,U1_M11,ZSPAN_M11,X2_M11,X0_M11,X1_M11
2022-11-16 08:00:00,,0833.0,5.01,0.00,21.8,20.2,00.0,30.8,23.5,06.5,0000.0,0001.72,0003.86,0001.59
2022-11-16 08:01:00,,0833.1,5.00,0.00,21.8,20.2,00.0,30.8,23.5,06.5,0000.0,0001.72,0003.89,0001.59
2022-11-16 08:02:00,,0833.1,5.00,0.00,21.8,20.7,00.0,30.7,23.6,06.6,0000.0,0001.72,0003.88,0001.58
2022-11-16 08:03:00,,0833.1,5.00,0.00,21.9,21.7,00.0,30.7,23.8,06.6,0000.0,0001.71,0003.87,0001.57
2022-11-16 08:04:00,,0833.0,5.00,0.00,22.0,22.0,00.0,30.7,23.9,06.6,0000.0,0001.66,0003.78,0001.56
2022-11-16 08:05:00,,0833.0,4.99,0.00,22.0,21.6,00.0,30.8,23.9,06.5,0000.0,0001.65,0003.74,0001.56
2022-11-16 08:06:00,,0833.0,5.00,0.00,22.0,21.3,00.0,30.8,23.8,06.3,0000.0,0001.66,0003.75,0001.55
2022-11-16 08:07:00,,0833.0,5.00,0.00,21.9,21.1,00.0,30.8,23.7,06.3,0000.0,0001.67,0003.78,0001.55
2022-11-16 08:08:00,,0833.1,5.00,0.00,21.9,20.8,00.0,30.8,23.7,06.4,0000.0,0001.69,0003.85,0001.54
2022-11-16 08:09:00,,0833.0,5.00,0.00,21.9,20.6,00.0,30.8,23.6,06.4,0000.0,0001.70,0003.93,0001.53
2022-11-16 08:10:00,,0833.1,5.00,0.00,21.8,20.5,00.0,30.8,23.5,06.6,0000.0,0001.68,0002.61,0001.53
2022-11-16 08:11:00,,0833.1,5.00,0.00,21.8,20.3,00.0,30.8,23.5,06.5,0000.0,0001.68,0002.21,0001.53
2022-11-16 08:12:00,,0833.1,5.00,0.00,21.8,20.2,00.0,30.8,23.5,06.4,0000.0,0001.66,0002.15,0001.53
2022-11-16 08:13:00,,0833.0,5.00,0.00,21.8,20.2,00.0,30.8,23.5,06.4,0000.0,0001.67,0002.22,0001.51
2022-11-16 08:14:00,,0833.1,5.02,0.00,21.8,21.1,00.0,30.7,23.6,06.3,0000.0,0001.64,0002.18,0001.50
2022-11-16 08:15:00,,0833.1,5.00,0.00,21.9,22.1,00.0,30.7,23.9,06.2,0000.0,0001.62,0002.15,0001.48
2022-11-16 08:16:00,,0833.0,5.00,0.00,22.0,22.6,00.0,30.7,24.1,06.1,0000.0,0001.59,0002.12,0001.45
2022-11-16 08:17:00,,0833.1,4.99,0.00,22.1,22.1,00.0,30.8,24.0,06.1,0000.0,0001.56,0002.08,0001.43
2022-11-16 08:18:00,,0833.1,5.01,0.00,22.1,21.7,00.0,30.8,24.0,06.1,0000.0,0001.55,0002.05,0001.43
2022-11-16 08:19:00,,0833.1,5.00,0.00,22.0,21.3,00.0,30.9,23.9,06.2,0000.0,0001.52,0002.21,0001.43
2022-11-16 08:20:00,,0833.1,4.99,0.00,22.0,21.0,00.0,30.9,23.8,06.1,0000.0,0001.50,0002.24,0001.42
2022-11-16 08:21:00,,0833.0,5.01,0.00,22.0,20.8,00.0,30.9,23.8,06.2,0000.0,0001.48,0002.21,0001.41
2022-11-16 08:22:00,,0833.0,5.01,0.00,22.0,20.7,00.0,30.9,23.7,06.5,0000.0,0001.47,0002.20,0001.39
2022-11-16 08:23:00,,0833.1,4.99,0.00,21.9,20.5,00.0,30.9,23.7,06.7,0000.0,0001.45,0002.18,0001.38
2022-11-16 08:24:00,,0833.1,4.99,0.00,21.9,20.4,00.0,30.9,23.6,07.1,0000.0,0001.46,0002.16,0001.40
2022-11-16 08:25:00,,0833.0,5.01,0.00,21.9,20.4,00.0,30.9,23.5,07.0,0000.0,0001.48,0002.27,0001.40
2022-11-16 08:26:00,,0833.0,5.01,0.00,21.8,20.3,00.0,30.9,23.5,06.6,0000.0,0001.50,0002.33,0001.41
2022-11-16 08:27:00,,0833.1,5.00,0.00,21.8,20.4,00.0,30.8,23.5,06.5,0000.0,0001.55,0002.44,0001.42
2022-11-16 08:28:00,,0833.1,5.00,0.00,21.9,21.2,00.0,30.8,23.7,06.4,0000.0,0001.56,0002.47,0001.43
2022-11-16 08:29:00,,0833.1,4.99,0.00,22.0,22.1,00.0,30.8,23.9,06.3,0000.0,0001.55,0002.46,0001.42
2022-11-16 08:30:00,,0833.2,4.99,0.00,22.0,22.0,00.0,30.8,24.0,06.4,0000.0,0001.58,0002.28,0001.42
2022-11-16 08:31:00,,0833.1,5.00,0.00,22.0,21.6,00.0,30.9,23.9,06.5,0000.0,0001.57,0002.16,0001.43
2022-11-16 08:32:00,,0833.1,5.01,0.00,22.0,21.3,00.0,30.9,23.8,06.5,0000.0,0001.58,0002.27,0001.43
2022-11-16 08:33:00,,0833.1,5.00,0.00,22.0,21.0,00.0,30.9,23.8,06.8,0000.0,0001.59,0002.28,0001.45
2022-11-16 08:34:00,,0833.1,5.00,0.00,22.0,20.7,00.0,30.9,23.7,07.1,0000.0,0001.60,0002.29,0001.45
2022-11-16 08:35:00,,0833.1,5.00,0.00,21.9,20.6,00.0,30.9,23.6,06.9,0000.0,0001.57,0002.21,0001.43
2022-11-16 08:36:00,,0833.1,5.00,0.00,21.9,20.4,00.0,30.9,23.6,07.0,0000.0,0001.56,0002.11,0001.43
2022-11-16 08:37:00,,0833.1,5.00,0.00,21.9,20.3,00.0,30.9,23.5,07.1,0000.0,0001.56,0002.11,0001.44
2022-11-16 08:38:00,,0833.0,5.00,0.00,21.8,20.2,00.0,30.8,23.5,07.2,0000.0,0001.52,0002.01,0001.43
2022-11-16 08:39:00,,0833.1,5.02,0.00,21.9,21.0,00.0,30.8,23.7,07.0,0000.0,0001.51,0001.99,0001.43
2022-11-16 08:40:00,,0833.0,4.99,0.00,22.0,22.0,00.0,30.7,23.9,06.9,0000.0,0001.53,0002.09,0001.42
2022-11-16 08:41:00,,0833.0,4.99,0.00,22.1,22.0,00.0,30.8,24.0,06.8,0000.0,0001.50,0002.11,0001.41
2022-11-16 08:42:00,,0833.0,5.00,0.00,22.1,21.6,00.0,30.8,23.9,06.5,0000.0,0001.47,0002.07,0001.39
2022-11-16 08:43:00,,0833.0,5.00,0.00,22.0,21.3,00.0,30.9,23.8,06.4,0000.0,0001.44,0001.92,0001.37
2022-11-16 08:44:00,,0833.0,5.00,0.00,22.0,21.0,00.0,30.9,23.8,06.6,0000.0,0001.42,0001.88,0001.35
2022-11-16 08:45:00,,0833.1,5.01,0.00,22.0,20.7,00.0,30.9,23.7,06.5,0000.0,0001.42,0001.93,0001.33
2022-11-16 08:46:00,,0833.0,5.00,0.00,21.9,20.6,00.0,30.9,23.6,06.5,0000.0,0001.43,0001.95,0001.33
2022-11-16 08:47:00,,0833.1,5.00,0.00,21.9,20.4,00.0,30.9,23.5,06.4,0000.0,0001.44,0002.00,0001.31
2022-11-16 08:48:00,,0833.0,5.00,0.00,21.8,20.3,00.0,30.8,23.5,06.4,0000.0,0001.42,0001.99,0001.29
2022-11-16 08:49:00,,0833.0,5.00,0.00,21.8,20.4,00.0,30.8,23.5,06.5,0000.0,0001.41,0001.98,0001.28
2022-11-16 08:50:00,,0833.0,5.02,0.00,21.9,21.4,00.0,30.7,23.8,06.5,0000.0,0001.39,0001.95,0001.25
2022-11-16 08:51:00,,0833.1,5.00,0.00,22.0,22.1,00.0,30.8,23.9,06.5,0000.0,0001.36,0001.88,0001.24
2022-11-16 08:52:00,,0833.1,4.99,0.00,22.1,21.8,00.0,30.8,24.0,06.5,0000.0,0001.37,0001.78,0001.24
2022-11-16 08:53:00,,0833.0,4.99,0.00,22.0,21.4,00.0,30.9,23.9,06.6,0000.0,0001.39,0001.82,0001.25
2022-11-16 08:54:00,,0833.0,5.01,0.00,22.0,21.1,00.0,30.9,23.8,06.5,0000.0,0001.40,0001.85,0001.26
2022-11-16 08:55:00,,0833.0,5.00,0.00,22.0,20.9,00.0,30.9,23.7,06.8,0000.0,0001.41,0001.88,0001.26
2022-11-16 08:56:00,,0833.0,5.00,0.00,21.9,20.7,00.0,30.9,23.6,06.5,0000.0,0001.43,0001.92,0001.26
2022-11-16 08:57:00,,0833.1,5.00,0.00,21.9,20.5,00.0,30.9,23.6,06.7,0000.0,0001.43,0001.92,0001.25
2022-11-16 08:58:00,,0833.1,5.00,0.00,21.9,20.4,00.0,30.9,23.5,06.7,0000.0,0001.43,0001.89,0001.27
2022-11-16 08:59:00,,0833.1,5.01,0.00,21.8,20.2,00.0,30.8,23.5,06.7,0000.0,0001.42,0001.88,0001.28
